Time,TemperatureF,DewpointF,PressureIn,WindDirection,WindDirectionDegrees,WindSpeedMPH,WindSpeedGustMPH,Humidity,HourlyPrecipIn,Conditions,Clouds,dailyrainin,SoftwareType,DateUTC
2013-02-10 00:01:00,33.0,32.0,-100.00,SE,140,24.0,31.0,95,0.00,,,0.00,,2013-02-10 06:01:00,
2013-02-10 00:11:00,33.0,32.0,-100.00,SE,145,21.0,31.0,97,0.00,,,0.00,,2013-02-10 06:11:00,
2013-02-10 00:21:00,33.0,32.0,-100.00,SE,140,22.0,27.0,98,0.00,,,0.00,,2013-02-10 06:21:00,
2013-02-10 01:01:00,33.0,32.0,-100.00,SE,145,22.0,30.0,99,0.00,,,0.00,,2013-02-10 07:01:00,
2013-02-10 01:11:00,33.0,32.0,-100.00,SSE,150,24.0,31.0,99,0.00,,,0.00,,2013-02-10 07:11:00,
2013-02-10 01:31:00,33.0,32.0,-100.00,SE,140,17.0,22.0,99,0.00,,,0.00,,2013-02-10 07:31:00,
2013-02-10 01:41:00,33.0,32.0,-100.00,SE,145,21.0,24.0,99,0.00,,,0.00,,2013-02-10 07:41:00,
2013-02-10 01:51:00,33.0,32.0,-100.00,SE,135,19.0,24.0,99,0.00,,,0.00,,2013-02-10 07:51:00,
2013-02-10 02:01:00,33.0,32.0,-100.00,SE,125,16.0,22.0,99,0.00,,,0.00,,2013-02-10 08:01:00,
2013-02-10 02:11:00,33.0,32.0,-100.00,ESE,110,15.0,23.0,99,0.00,,,0.00,,2013-02-10 08:11:00,
2013-02-10 02:21:00,33.0,32.0,-100.00,SE,135,17.0,22.0,99,0.00,,,0.00,,2013-02-10 08:21:00,
2013-02-10 02:32:00,33.0,32.0,-100.00,SE,140,20.0,26.0,99,0.00,,,0.00,,2013-02-10 08:32:00,
2013-02-10 02:43:00,33.0,32.0,-100.00,SE,145,22.0,27.0,99,0.00,,,0.00,,2013-02-10 08:43:00,
2013-02-10 02:52:00,33.0,32.0,-100.00,SE,140,24.0,28.0,99,0.00,,,0.00,,2013-02-10 08:52:00,
2013-02-10 03:02:00,33.0,32.0,-100.00,SE,145,24.0,30.0,99,0.00,,,0.00,,2013-02-10 09:02:00,
2013-02-10 03:11:00,33.0,32.0,-100.00,SE,140,23.0,31.0,99,0.00,,,0.00,,2013-02-10 09:11:00,
2013-02-10 03:21:00,33.0,32.0,-100.00,SE,140,20.0,27.0,99,0.00,,,0.00,,2013-02-10 09:21:00,
2013-02-10 05:42:00,33.0,32.0,-100.00,SE,135,20.0,26.0,99,0.00,,,0.00,,2013-02-10 11:42:00,
2013-02-10 05:52:00,33.0,32.0,-100.00,SE,135,20.0,25.0,99,0.00,,,0.00,,2013-02-10 11:52:00,
2013-02-10 06:01:00,33.0,32.0,-100.00,SE,130,17.0,24.0,99,0.00,,,0.00,,2013-02-10 12:01:00,
2013-02-10 06:12:00,33.0,32.0,-100.00,ESE,120,16.0,20.0,99,0.00,,,0.00,,2013-02-10 12:12:00,
2013-02-10 06:21:00,33.0,32.0,-100.00,SE,125,16.0,20.0,99,0.00,,,0.00,,2013-02-10 12:21:00,
2013-02-10 06:32:00,33.0,32.0,-100.00,SE,125,17.0,22.0,99,0.00,,,0.00,,2013-02-10 12:32:00,
2013-02-10 06:41:00,33.0,32.0,-100.00,SE,125,16.0,19.0,99,0.00,,,0.00,,2013-02-10 12:41:00,
2013-02-10 06:52:00,33.0,32.0,-100.00,SE,125,16.0,21.0,99,0.00,,,0.00,,2013-02-10 12:52:00,
2013-02-10 07:02:00,33.0,32.0,-100.00,SE,130,14.0,20.0,99,0.00,,,0.00,,2013-02-10 13:02:00,
2013-02-10 07:11:00,33.0,32.0,-100.00,SE,130,14.0,18.0,99,0.00,,,0.00,,2013-02-10 13:11:00,
2013-02-10 07:21:00,33.0,32.0,-100.00,SE,125,16.0,20.0,99,0.00,,,0.00,,2013-02-10 13:21:00,
2013-02-10 07:31:00,33.0,32.0,-100.00,SE,125,14.0,21.0,99,0.00,,,0.00,,2013-02-10 13:31:00,
2013-02-10 07:41:00,33.0,32.0,-100.00,SE,125,17.0,20.0,99,0.00,,,0.00,,2013-02-10 13:41:00,
2013-02-10 07:51:00,33.0,32.0,-100.00,ESE,120,17.0,22.0,99,0.00,,,0.00,,2013-02-10 13:51:00,
2013-02-10 08:02:00,33.0,32.0,-100.00,ESE,120,16.0,22.0,99,0.00,,,0.00,,2013-02-10 14:02:00,
2013-02-10 08:11:00,33.0,32.0,-100.00,ESE,115,16.0,21.0,99,0.00,,,0.00,,2013-02-10 14:11:00,
2013-02-10 08:21:00,33.0,32.0,-100.00,ESE,120,17.0,21.0,99,0.00,,,0.00,,2013-02-10 14:21:00,
2013-02-10 08:31:00,33.0,32.0,-100.00,SE,125,17.0,21.0,99,0.00,,,0.00,,2013-02-10 14:31:00,
2013-02-10 08:41:00,33.0,32.0,-100.00,SE,125,17.0,21.0,99,0.00,,,0.00,,2013-02-10 14:41:00,
2013-02-10 08:52:00,33.0,32.0,-100.00,SE,125,16.0,21.0,99,0.00,,,0.00,,2013-02-10 14:52:00,
2013-02-10 09:01:00,33.0,32.0,-100.00,SE,125,21.0,25.0,99,0.00,,,0.00,,2013-02-10 15:01:00,
2013-02-10 09:11:00,33.0,32.0,-100.00,SE,130,17.0,25.0,99,0.00,,,0.00,,2013-02-10 15:11:00,
2013-02-10 09:21:00,33.0,32.0,-100.00,SE,130,18.0,22.0,99,0.00,,,0.00,,2013-02-10 15:21:00,
2013-02-10 09:31:00,33.0,32.0,-100.00,SE,130,17.0,22.0,99,0.00,,,0.00,,2013-02-10 15:31:00,
2013-02-10 09:41:00,33.0,32.0,-100.00,SE,130,16.0,22.0,99,0.00,,,0.00,,2013-02-10 15:41:00,
2013-02-10 09:51:00,33.0,32.0,-100.00,SE,135,16.0,20.0,99,0.00,,,0.00,,2013-02-10 15:51:00,
2013-02-10 10:02:00,33.0,32.0,-100.00,SE,130,14.0,19.0,99,0.00,,,0.00,,2013-02-10 16:02:00,
2013-02-10 10:11:00,33.0,32.0,-100.00,SE,125,15.0,19.0,99,0.00,,,0.00,,2013-02-10 16:11:00,
2013-02-10 11:42:00,34.0,34.0,-100.00,ESE,120,11.0,16.0,99,0.00,,,0.00,,2013-02-10 17:42:00,
2013-02-10 11:52:00,34.0,34.0,-100.00,SE,125,11.0,14.0,99,0.00,,,0.00,,2013-02-10 17:52:00,
2013-02-10 12:02:00,34.0,34.0,-100.00,ESE,120,9.0,13.0,99,0.00,,,0.00,,2013-02-10 18:02:00,
2013-02-10 12:21:00,34.0,34.0,-100.00,ESE,105,6.0,9.0,99,0.00,,,0.01,,2013-02-10 18:21:00,
2013-02-10 12:32:00,34.0,34.0,-100.00,ENE,70,4.0,7.0,99,0.00,,,0.01,,2013-02-10 18:32:00,
2013-02-10 12:42:00,34.0,34.0,-100.00,East,85,5.0,6.0,99,0.00,,,0.01,,2013-02-10 18:42:00,
2013-02-10 13:01:00,33.0,32.0,-100.00,NE,45,6.0,6.0,99,0.00,,,0.01,,2013-02-10 19:01:00,
2013-02-10 13:11:00,33.0,32.0,-100.00,NE,55,5.0,6.0,99,0.00,,,0.01,,2013-02-10 19:11:00,
2013-02-10 13:21:00,33.0,32.0,-100.00,NE,50,4.0,6.0,99,0.00,,,0.01,,2013-02-10 19:21:00,
2013-02-10 13:32:00,33.0,32.0,-100.00,NE,45,4.0,5.0,99,0.00,,,0.01,,2013-02-10 19:32:00,
2013-02-10 13:42:00,33.0,32.0,-100.00,NNE,30,4.0,4.0,99,0.00,,,0.01,,2013-02-10 19:42:00,
2013-02-10 13:51:00,33.0,32.0,-100.00,NNE,15,6.0,7.0,99,0.00,,,0.01,,2013-02-10 19:51:00,
2013-02-10 14:02:00,33.0,32.0,-100.00,North,10,6.0,7.0,99,0.00,,,0.01,,2013-02-10 20:02:00,
2013-02-10 15:51:00,33.0,32.0,-100.00,North,10,17.0,20.0,99,0.00,,,0.01,,2013-02-10 21:51:00,
2013-02-10 16:02:00,32.0,32.0,-100.00,North,0,15.0,22.0,99,0.00,,,0.01,,2013-02-10 22:02:00,
2013-02-10 16:21:00,31.0,30.0,-100.00,North,0,21.0,26.0,99,0.00,,,0.01,,2013-02-10 22:21:00,
2013-02-10 16:52:00,29.0,28.0,-100.00,North,350,22.0,30.0,99,0.00,,,0.01,,2013-02-10 22:52:00,
2013-02-10 17:02:00,28.0,28.0,-100.00,North,350,25.0,32.0,99,0.00,,,0.01,,2013-02-10 23:02:00,
2013-02-10 17:42:00,27.0,27.0,-100.00,NNW,345,26.0,32.0,99,0.00,,,0.01,,2013-02-10 23:42:00,
2013-02-10 17:52:00,27.0,27.0,-100.00,NNW,345,26.0,29.0,99,0.00,,,0.01,,2013-02-10 23:52:00,
2013-02-10 18:02:00,27.0,27.0,-100.00,North,350,26.0,35.0,99,0.00,,,0.01,,2013-02-11 00:02:00,
2013-02-10 18:11:00,27.0,27.0,-100.00,NNW,345,26.0,34.0,99,0.00,,,0.01,,2013-02-11 00:11:00,
2013-02-10 18:22:00,27.0,27.0,-100.00,North,350,26.0,32.0,99,0.00,,,0.01,,2013-02-11 00:22:00,
2013-02-10 18:32:00,27.0,27.0,-100.00,NNW,345,25.0,32.0,99,0.00,,,0.01,,2013-02-11 00:32:00,
2013-02-10 18:42:00,27.0,27.0,-100.00,NNW,335,24.0,31.0,99,0.00,,,0.01,,2013-02-11 00:42:00,
2013-02-10 18:51:00,27.0,27.0,-100.00,NNW,335,24.0,30.0,99,0.00,,,0.01,,2013-02-11 00:51:00,
2013-02-10 19:21:00,26.0,25.0,-100.00,NNW,340,25.0,31.0,97,0.00,,,0.01,,2013-02-11 01:21:00,
2013-02-10 19:32:00,26.0,25.0,-100.00,NNW,335,24.0,32.0,96,0.00,,,0.01,,2013-02-11 01:32:00,
2013-02-10 19:41:00,26.0,25.0,-100.00,NNW,335,27.0,30.0,95,0.00,,,0.01,,2013-02-11 01:41:00,
2013-02-10 19:52:00,26.0,25.0,-100.00,NNW,335,26.0,34.0,94,0.00,,,0.01,,2013-02-11 01:52:00,
2013-02-10 20:01:00,26.0,25.0,-100.00,NNW,330,21.0,32.0,94,0.00,,,0.01,,2013-02-11 02:01:00,
2013-02-10 20:11:00,26.0,25.0,-100.00,NNW,330,24.0,28.0,95,0.00,,,0.01,,2013-02-11 02:11:00,
2013-02-10 20:21:00,26.0,25.0,-100.00,NNW,330,23.0,27.0,95,0.00,,,0.01,,2013-02-11 02:21:00,
2013-02-10 20:31:00,26.0,25.0,-100.00,NNW,330,24.0,29.0,96,0.00,,,0.01,,2013-02-11 02:31:00,
2013-02-10 20:42:00,26.0,25.0,-100.00,NNW,335,26.0,33.0,96,0.00,,,0.01,,2013-02-11 02:42:00,
2013-02-10 20:52:00,26.0,25.0,-100.00,NW,325,21.0,29.0,96,0.00,,,0.01,,2013-02-11 02:52:00,
2013-02-10 21:02:00,26.0,25.0,-100.00,NNW,330,24.0,29.0,96,0.00,,,0.01,,2013-02-11 03:02:00,
2013-02-10 21:11:00,26.0,25.0,-100.00,NNW,330,21.0,31.0,96,0.00,,,0.01,,2013-02-11 03:11:00,
2013-02-10 21:21:00,26.0,25.0,-100.00,NNW,330,26.0,30.0,96,0.00,,,0.01,,2013-02-11 03:21:00,
2013-02-10 21:31:00,26.0,25.0,-100.00,NNW,335,24.0,31.0,95,0.00,,,0.01,,2013-02-11 03:31:00,
2013-02-10 21:42:00,26.0,25.0,-100.00,NNW,330,26.0,32.0,93,0.00,,,0.01,,2013-02-11 03:42:00,
2013-02-10 21:52:00,26.0,25.0,-100.00,NNW,330,27.0,33.0,92,0.00,,,0.01,,2013-02-11 03:52:00,
2013-02-10 22:01:00,26.0,25.0,-100.00,NNW,330,27.0,35.0,91,0.00,,,0.01,,2013-02-11 04:01:00,
2013-02-10 22:11:00,26.0,25.0,-100.00,NNW,335,29.0,36.0,91,0.00,,,0.01,,2013-02-11 04:11:00,
2013-02-10 22:21:00,27.0,25.0,-100.00,NNW,335,24.0,34.0,91,0.00,,,0.01,,2013-02-11 04:21:00,
2013-02-10 22:31:00,27.0,25.0,-100.00,NNW,335,27.0,35.0,90,0.00,,,0.01,,2013-02-11 04:31:00,
2013-02-10 22:42:00,27.0,25.0,-100.00,NNW,335,29.0,35.0,89,0.00,,,0.01,,2013-02-11 04:42:00,
2013-02-10 22:51:00,27.0,25.0,-100.00,NNW,335,26.0,31.0,89,0.00,,,0.01,,2013-02-11 04:51:00,
2013-02-10 23:01:00,27.0,25.0,-100.00,NNW,330,27.0,33.0,89,0.00,,,0.01,,2013-02-11 05:01:00,
2013-02-10 23:11:00,27.0,25.0,-100.00,NNW,335,26.0,34.0,89,0.00,,,0.01,,2013-02-11 05:11:00,
2013-02-10 23:22:00,27.0,25.0,-100.00,NNW,330,24.0,34.0,89,0.00,,,0.01,,2013-02-11 05:22:00,
2013-02-10 23:31:00,27.0,25.0,-100.00,NNW,330,22.0,35.0,90,0.00,,,0.01,,2013-02-11 05:31:00,
2013-02-10 23:42:00,27.0,25.0,-100.00,NNW,335,25.0,32.0,91,0.00,,,0.01,,2013-02-11 05:42:00,
2013-02-10 23:52:00,27.0,25.0,-100.00,NNW,335,30.0,37.0,90,0.00,,,0.01,,2013-02-11 05:52:00,